When you browse on this site, cookies collect data to enhance your experience and personalize the content and advertising you see.
Visit our Privacy Policy to learn more. By continuing to use the site, you agree to this use of cookies and data.
  • en Suisse
  • Liste des pays
  • À 7 jours
  • Température de l'eau
  • Carte météo
  • Widgets météo
  • user-avatar
    Se connecter

    Météo par heure à Nashavar

    Ce jour, 5 Avril, Dimanche

    Heure Température Précipitation Vent Pression Humidité
    00:00 +22°C° 0 mm 1 m/s 730 mmHg 51%
    01:00 +22°C° 0 mm 1 m/s 730 mmHg 52%
    02:00 +19°C° 0 mm 0 m/s 730 mmHg 54%
    03:00 +21°C° 0.5 mm 1 m/s 730 mmHg 55%
    04:00 +21°C° 0.5 mm 1 m/s 730 mmHg 57%
    05:00 +20°C° 0.5 mm 2 m/s 730 mmHg 58%
    06:00 +22°C° 0.1 mm 1 m/s 730 mmHg 56%
    07:00 +23°C° 0.1 mm 1 m/s 730 mmHg 54%
    08:00 +24°C° 0.1 mm 1 m/s 731 mmHg 51%
    09:00 +25°C° 0 mm 1 m/s 731 mmHg 47%
    10:00 +26°C° 0 mm 1 m/s 731 mmHg 42%
    11:00 +27°C° 0 mm 1 m/s 732 mmHg 38%
    12:00 +28°C° 0 mm 1 m/s 731 mmHg 36%
    13:00 +29°C° 0 mm 2 m/s 731 mmHg 34%
    14:00 +29°C° 0 mm 2 m/s 730 mmHg 32%
    15:00 +29°C° 0 mm 2 m/s 730 mmHg 32%
    16:00 +29°C° 0 mm 2 m/s 730 mmHg 33%
    17:00 +29°C° 0 mm 2 m/s 730 mmHg 34%
    18:00 +27°C° 0.2 mm 2 m/s 730 mmHg 40%
    19:00 +25°C° 0.2 mm 2 m/s 731 mmHg 46%
    20:00 +24°C° 0.2 mm 2 m/s 731 mmHg 52%
    21:00 +23°C° 0.1 mm 1 m/s 731 mmHg 53%
    22:00 +23°C° 0.1 mm 1 m/s 731 mmHg 54%
    23:00 +23°C° 0.1 mm 1 m/s 731 mmHg 56%

    Demain, 6 Avril, Lundi

    Heure Température Précipitation Vent Pression Humidité
    00:00 +22°C° 0 mm 1 m/s 731 mmHg 58%
    01:00 +21°C° 0 mm 1 m/s 730 mmHg 59%
    02:00 +19°C° 0 mm 0 m/s 730 mmHg 61%
    03:00 +19°C° 0 mm 0 m/s 730 mmHg 62%
    04:00 +18°C° 0 mm 0 m/s 730 mmHg 62%
    05:00 +18°C° 0 mm 0 m/s 730 mmHg 62%
    06:00 +21°C° 0 mm 1 m/s 730 mmHg 57%
    07:00 +22°C° 0 mm 1 m/s 730 mmHg 53%
    08:00 +24°C° 0 mm 1 m/s 731 mmHg 48%
    09:00 +25°C° 0 mm 1 m/s 731 mmHg 44%
    10:00 +26°C° 0 mm 1 m/s 731 mmHg 40%
    11:00 +28°C° 0 mm 1 m/s 731 mmHg 36%
    12:00 +28°C° 0 mm 1 m/s 730 mmHg 34%
    13:00 +29°C° 0 mm 2 m/s 730 mmHg 32%
    14:00 +30°C° 0 mm 2 m/s 730 mmHg 30%
    15:00 +30°C° 0 mm 2 m/s 729 mmHg 31%
    16:00 +29°C° 0 mm 1 m/s 729 mmHg 33%
    17:00 +29°C° 0 mm 1 m/s 728 mmHg 35%
    18:00 +28°C° 0.2 mm 1 m/s 729 mmHg 39%
    19:00 +26°C° 0.2 mm 2 m/s 729 mmHg 43%
    20:00 +25°C° 0.2 mm 2 m/s 729 mmHg 47%
    21:00 +24°C° 0.2 mm 2 m/s 729 mmHg 51%
    22:00 +22°C° 0.2 mm 3 m/s 729 mmHg 56%
    23:00 +21°C° 0.2 mm 3 m/s 729 mmHg 60%

    Après-demain, 7 Avril, Mardi

    Heure Température Précipitation Vent Pression Humidité
    00:00 +20°C° 0.4 mm 3 m/s 729 mmHg 63%
    01:00 +19°C° 0.4 mm 3 m/s 729 mmHg 66%
    02:00 +18°C° 0.4 mm 4 m/s 729 mmHg 69%
    03:00 +18°C° 0.4 mm 4 m/s 728 mmHg 68%
    04:00 +18°C° 0.4 mm 4 m/s 728 mmHg 68%
    05:00 +17°C° 0.4 mm 4 m/s 728 mmHg 67%
    06:00 +18°C° 0.4 mm 4 m/s 728 mmHg 64%
    07:00 +19°C° 0.4 mm 4 m/s 728 mmHg 60%
    08:00 +20°C° 0.4 mm 3 m/s 728 mmHg 57%
    09:00 +21°C° 0 mm 3 m/s 728 mmHg 50%
    10:00 +24°C° 0 mm 3 m/s 728 mmHg 44%
    11:00 +26°C° 0 mm 2 m/s 728 mmHg 38%
    12:00 +27°C° 0 mm 2 m/s 728 mmHg 36%
    13:00 +27°C° 0 mm 2 m/s 728 mmHg 34%
    14:00 +28°C° 0 mm 2 m/s 728 mmHg 32%
    15:00 +28°C° 0 mm 3 m/s 727 mmHg 35%
    16:00 +27°C° 0 mm 4 m/s 727 mmHg 37%
    17:00 +27°C° 0 mm 4 m/s 726 mmHg 40%
    18:00 +26°C° 0 mm 3 m/s 726 mmHg 44%
    19:00 +24°C° 0 mm 2 m/s 727 mmHg 49%
    20:00 +23°C° 0 mm 1 m/s 727 mmHg 53%
    21:00 +23°C° 0 mm 1 m/s 727 mmHg 53%
    22:00 +22°C° 0 mm 1 m/s 727 mmHg 53%
    23:00 +22°C° 0 mm 1 m/s 727 mmHg 52%

    8 Avril, Mercredi

    Heure Température Précipitation Vent Pression Humidité
    00:00 +21°C° 0 mm 1 m/s 727 mmHg 54%
    01:00 +21°C° 0 mm 1 m/s 726 mmHg 55%
    02:00 +20°C° 0 mm 1 m/s 726 mmHg 56%
    03:00 +20°C° 0 mm 1 m/s 726 mmHg 58%
    04:00 +19°C° 0 mm 1 m/s 726 mmHg 59%
    05:00 +19°C° 0 mm 1 m/s 726 mmHg 60%
    06:00 +20°C° 0 mm 1 m/s 726 mmHg 57%
    07:00 +22°C° 0 mm 1 m/s 726 mmHg 53%
    08:00 +23°C° 0 mm 1 m/s 727 mmHg 49%
    09:00 +25°C° 0 mm 1 m/s 727 mmHg 44%
    10:00 +27°C° 0 mm 1 m/s 727 mmHg 39%
    11:00 +28°C° 0 mm 1 m/s 728 mmHg 34%
    12:00 +29°C° 0 mm 1 m/s 727 mmHg 32%
    13:00 +30°C° 0 mm 1 m/s 727 mmHg 29%
    14:00 +31°C° 0 mm 1 m/s 727 mmHg 26%
    15:00 +31°C° 0 mm 1 m/s 727 mmHg 27%
    16:00 +31°C° 0 mm 1 m/s 726 mmHg 28%
    17:00 +31°C° 0 mm 2 m/s 726 mmHg 28%
    18:00 +30°C° 0 mm 1 m/s 726 mmHg 32%
    19:00 +28°C° 0 mm 1 m/s 726 mmHg 36%
    20:00 +26°C° 0 mm 1 m/s 726 mmHg 40%
    21:00 +26°C° 0 mm 1 m/s 726 mmHg 42%
    22:00 +25°C° 0 mm 1 m/s 726 mmHg 43%
    23:00 +24°C° 0 mm 1 m/s 726 mmHg 44%

    9 Avril, Jeudi

    Heure Température Précipitation Vent Pression Humidité
    00:00 +24°C° 0 mm 1 m/s 726 mmHg 46%
    01:00 +23°C° 0 mm 1 m/s 726 mmHg 48%
    02:00 +23°C° 0 mm 1 m/s 726 mmHg 50%
    03:00 +23°C° 0 mm 1 m/s 726 mmHg 51%
    04:00 +22°C° 0 mm 1 m/s 726 mmHg 52%
    05:00 +22°C° 0 mm 1 m/s 726 mmHg 53%
    06:00 +23°C° 0 mm 1 m/s 726 mmHg 51%
    07:00 +24°C° 0 mm 1 m/s 727 mmHg 49%
    08:00 +25°C° 0 mm 1 m/s 727 mmHg 47%
    09:00 +26°C° 0 mm 1 m/s 728 mmHg 43%
    10:00 +27°C° 0 mm 1 m/s 728 mmHg 40%
    11:00 +28°C° 0 mm 1 m/s 728 mmHg 36%
    12:00 +29°C° 0 mm 1 m/s 728 mmHg 35%
    13:00 +30°C° 0 mm 1 m/s 727 mmHg 33%
    14:00 +31°C° 0 mm 1 m/s 727 mmHg 32%
    15:00 +31°C° 0 mm 1 m/s 727 mmHg 32%
    16:00 +31°C° 0 mm 1 m/s 727 mmHg 32%
    17:00 +31°C° 0 mm 1 m/s 727 mmHg 32%
    18:00 +29°C° 0 mm 1 m/s 727 mmHg 37%
    19:00 +28°C° 0 mm 1 m/s 727 mmHg 41%
    20:00 +27°C° 0 mm 1 m/s 728 mmHg 46%
    21:00 +26°C° 0.2 mm 1 m/s 728 mmHg 48%
    22:00 +25°C° 0.2 mm 1 m/s 728 mmHg 51%
    23:00 +24°C° 0.2 mm 1 m/s 729 mmHg 54%

    10 Avril, Vendredi

    Heure Température Précipitation Vent Pression Humidité
    00:00 +24°C° 0.3 mm 1 m/s 729 mmHg 56%
    01:00 +23°C° 0.3 mm 1 m/s 728 mmHg 58%
    02:00 +23°C° 0.3 mm 1 m/s 728 mmHg 60%
    03:00 +23°C° 0.1 mm 1 m/s 728 mmHg 60%
    04:00 +22°C° 0.1 mm 1 m/s 728 mmHg 60%
    05:00 +22°C° 0.1 mm 1 m/s 728 mmHg 59%
    06:00 +23°C° 0 mm 1 m/s 728 mmHg 56%
    07:00 +25°C° 0 mm 1 m/s 729 mmHg 52%
    08:00 +26°C° 0 mm 1 m/s 729 mmHg 49%
    09:00 +27°C° 0 mm 1 m/s 729 mmHg 44%
    10:00 +29°C° 0 mm 1 m/s 729 mmHg 40%
    11:00 +30°C° 0 mm 1 m/s 729 mmHg 35%
    12:00 +31°C° 0 mm 1 m/s 729 mmHg 33%
    13:00 +32°C° 0 mm 1 m/s 729 mmHg 30%
    14:00 +33°C° 0 mm 1 m/s 728 mmHg 28%
    15:00 +33°C° 0 mm 1 m/s 728 mmHg 28%
    16:00 +33°C° 0 mm 1 m/s 728 mmHg 28%
    17:00 +33°C° 0 mm 1 m/s 728 mmHg 28%
    18:00 +31°C° 0 mm 1 m/s 728 mmHg 33%
    19:00 +29°C° 0 mm 1 m/s 729 mmHg 38%
    20:00 +28°C° 0 mm 1 m/s 729 mmHg 43%
    21:00 +27°C° 0 mm 1 m/s 730 mmHg 44%
    22:00 +27°C° 0 mm 1 m/s 730 mmHg 45%
    23:00 +26°C° 0 mm 1 m/s 730 mmHg 45%
    Voir plus